Location: Milton Keynes
(52.0316°N, 0.7531°W)
Time: 20:20:32
(UTC+01:00)

Envisat - Pass Details

Date: 31 January 2019
Orbit: 764 x 766 km, 98.1° (Epoch: 16 October)

Event Time Altitude Azimuth Distance (km) Brightness Sun altitude
Rises 17:55:31 0° 146° (SE) 3,224 6.0 -10.4°
Reaches altitude 10° 17:57:52 10° 140° (SE) 2,302 5.2 -10.8°
Maximum altitude 18:02:44 49° 67° (ENE) 991 3.2 -11.5°
Drops below altitude 10° 18:07:37 10° 354° (N) 2,316 5.4 -12.2°
Sets 18:10:00 0° 349° (N) 3,247 6.2 -12.6°
